Temp
62 62 62 62 61 61 61 61 61 61 61 61 60 60 60 59 58 60 58 65 65 67 67 68 68 66 63 58 60 58 46 40 46 50 56 68 65 66 72 69 71 75 72 75 78
61 61 62 61 60 60 60 60 60 60 60 60 60 59 59 59 55 55 66 68 67 68 65 65 65 64 56 56 57 52 43 48 57 58 60 65 66 66 65 67 68 69 75 75 75
61 61 61 61 60 60 59 59 59 60 60 59 59 59 58 57 55 61 67 67 68 67 66 66 66 63 55 56 56 52 50 57 62 65 65 65 66 70 64 61 67 66 70 74 73
60 60 60 60 60 59 59 58 59 59 60 59 59 59 59 55 49 64 68 67 67 66 66 65 62 56 54 53 58 51 59 61 62 64 62 61 63 63 63 64 71 71 71 72 73
59 59 59 59 59 59 58 58 58 59 59 59 59 59 55 49 52 68 68 67 66 67 64 62 59 57 52 55 57 54 57 60 62 63 62 65 62 63 63 68 70 71 73 71 70
58 58 58 58 58 58 58 58 57 58 58 59 59 58 52 43 66 69 69 67 66 63 62 62 60 61 56 55 51 57 57 56 58 58 60 61 61 60 64 68 70 71 71 71 70
58 58 57 58 58 58 59 58 57 58 58 59 58 58 50 50 65 64 66 63 64 65 61 65 64 57 58 54 59 58 51 55 55 55 56 62 55 56 66 66 67 70 72 71 70
58 57 57 57 57 57 58 58 57 59 58 58 58 55 45 64 62 61 60 59 65 66 66 69 66 59 54 57 55 50 48 39 51 54 58 52 47 57 64 62 61 63 66 70 68
57 57 57 56 56 56 56 57 58 58 57 57 52 50 45 64 59 64 63 60 65 66 65 71 64 54 52 44 39 42 34 40 45 57 54 50 49 56 64 62 61 60 62 65 69
57 57 56 56 56 55 55 55 55 54 54 57 56 45 51 55 64 67 64 65 61 61 59 58 52 45 42 38 29 34 36 37 37 47 49 48 50 58 58 56 58 59 61 63 63
57 56 56 56 55 54 52 49 47 45 47 44 47 49 58 63 68 64 67 63 61 56 46 51 42 37 43 44 46 44 42 40 46 51 49 48 49 52 56 55 56 58 60 62 58
56 56 55 55 55 54 54 45 50 50 42 48 52 51 59 60 54 61 66 56 53 44 48 43 39 48 50 48 46 45 41 41 48 52 49 45 45 51 54 55 57 57 60 59 59
55 55 55 55 55 53 48 51 58 55 41 48 50 48 53 56 50 54 59 56 50 45 45 40 46 53 50 46 44 44 42 43 43 44 45 43 39 46 53 55 58 59 60 62 57
54 54 53 54 50 51 49 57 58 56 30 42 48 51 54 58 49 61 63 56 50 46 45 44 52 49 48 46 47 39 45 44 41 37 31 41 29 42 47 49 52 55 53 53 53
53 53 53 55 48 48 53 55 55 52 20 51 53 64 58 53 57 56 63 55 48 46 46 42 44 44 44 46 47 41 44 42 39 33 31 36 28 39 48 45 49 49 48 47 49
54 53 53 52 51 52 55 54 51 34 21 45 54 50 48 52 55 59 56 58 55 48 47 46 49 49 47 48 48 45 41 39 37 33 22 34 32 30 38 44 47 49 48 48 48
52 52 53 55 49 54 56 48 34 24 47 45 48 50 48 47 49 52 50 46 41 35 35 43 43 47 50 41 44 39 34 27 21 25 23 38 33 34 41 43 47 43 43 45 47
51 50 50 52 52 55 50 39 27 38 40 54 52 52 46 49 48 50 45 40 44 42 36 33 31 42 48 44 39 36 35 26 19 21 24 37 25 33 39 39 41 44 44 43 44
51 46 46 48 53 53 44 31 33 39 48 46 49 44 43 49 49 47 45 44 46 46 38 34 36 48 48 48 46 37 29 39 31 30 21 29 34 40 37 35 36 36 38 38 40
42 43 43 49 50 48 39 33 38 48 50 48 39 43 39 44 44 44 43 47 48 50 49 42 35 45 49 49 47 42 43 30 29 21 21 28 29 28 33 33 35 34 33 34 38
43 36 43 49 49 41 32 34 42 50 50 45 42 40 41 41 42 39 42 46 47 46 50 43 39 37 46 41 38 38 37 36 34 29 23 22 26 35 33 37 35 35 35 39 39
42 34 43 47 35 33 33 40 46 45 50 46 46 43 40 42 40 41 40 44 48 48 42 41 39 32 38 47 48 46 41 39 26 25 28 26 29 39 40 42 41 40 39 39 38
37 36 44 43 30 31 35 38 43 42 44 45 44 45 45 40 36 40 42 47 49 44 41 41 34 28 30 39 43 39 43 43 39 34 28 23 27 41 42 42 42 38 39 39 38
35 29 34 35 36 34 32 34 36 44 42 45 45 46 44 40 44 38 38 44 46 45 45 44 35 31 28 33 37 35 41 42 37 27 28 29 32 37 36 37 38 37 36 35 35
34 32 35 28 30 34 37 38 35 34 43 42 41 41 39 34 38 38 40 41 44 46 43 37 28 34 40 41 41 40 40 42 39 37 29 34 32 34 35 34 35 36 36 34 33
32 33 36 31 35 32 34 34 34 37 40 36 35 37 40 35 37 34 37 36 36 39 38 39 28 31 31 41 41 37 41 40 41 39 34 34 31 38 37 36 34 34 33 31 32
38 41 37 35 31 31 32 35 36 39 41 45 41 41 40 40 43 43 42 41 40 39 34 33 30 29 27 35 35 28 34 38 35 35 36 28 33 34 30 30 31 31 32 30 29
MSLP
1019.47 1019.44 1019.37 1019.28 1019.27 1019.23 1019.09 1019.03 1019.01 1018.98 1018.96 1019.00 1018.92 1018.67 1018.29 1017.76 1016.72 1016.03 1015.40 1013.72 1013.51 1013.23 1013.30 1013.19 1013.15 1012.98 1013.03 1013.27 1013.15 1013.58 1014.59 1014.63 1013.62 1012.34 1010.85 1009.65 1009.47 1008.97 1008.55 1008.30 1007.64 1006.90 1006.24 1005.95 1005.98
1019.35 1019.22 1019.32 1019.32 1019.19 1019.15 1019.00 1018.98 1018.90 1018.88 1018.77 1018.76 1018.86 1018.73 1018.26 1017.83 1017.10 1015.22 1013.27 1013.24 1013.34 1013.28 1013.37 1013.34 1013.14 1013.18 1013.19 1013.23 1013.26 1013.66 1014.15 1013.39 1012.53 1011.78 1011.08 1009.92 1009.67 1008.90 1008.86 1008.32 1007.78 1007.39 1006.75 1006.57 1006.88
1019.22 1019.21 1019.14 1019.23 1019.16 1018.97 1018.90 1018.89 1018.73 1018.71 1018.63 1018.64 1018.76 1018.75 1018.18 1017.96 1017.04 1013.99 1012.85 1013.15 1013.34 1013.47 1013.35 1013.27 1013.17 1013.30 1013.22 1013.09 1013.10 1013.11 1012.88 1012.46 1011.93 1011.50 1011.01 1010.21 1009.18 1008.92 1008.49 1008.43 1008.22 1007.72 1007.24 1006.78 1006.41
1019.08 1019.13 1019.05 1018.97 1018.96 1018.82 1018.71 1018.70 1018.67 1018.53 1018.58 1018.57 1018.72 1018.77 1018.28 1018.04 1016.22 1013.21 1012.97 1013.33 1013.40 1013.62 1013.53 1013.27 1013.20 1013.27 1013.34 1013.19 1012.71 1012.83 1012.38 1012.23 1011.81 1011.41 1011.15 1010.54 1009.67 1008.69 1008.77 1008.43 1007.73 1007.26 1006.95 1006.72 1006.57
1018.78 1018.83 1018.90 1018.88 1018.71 1018.62 1018.57 1018.45 1018.51 1018.40 1018.33 1018.38 1018.74 1018.84 1018.44 1017.94 1015.61 1012.98 1013.31 1013.34 1013.41 1013.36 1013.60 1013.53 1013.55 1013.40 1013.46 1013.07 1013.02 1012.65 1012.29 1012.07 1011.87 1011.55 1010.99 1009.99 1009.03 1008.99 1008.45 1007.65 1007.16 1006.77 1006.44 1006.25 1006.14
1018.58 1018.52 1018.65 1018.70 1018.58 1018.34 1018.34 1018.35 1018.25 1018.29 1017.95 1018.62 1018.65 1019.13 1018.80 1017.26 1013.56 1013.11 1013.28 1013.38 1013.38 1013.38 1013.41 1013.56 1013.40 1013.40 1013.55 1013.32 1013.41 1012.90 1012.54 1012.36 1012.09 1011.96 1011.14 1009.92 1008.20 1008.72 1008.30 1007.58 1006.40 1006.37 1006.16 1005.90 1005.64
1018.23 1018.40 1018.43 1018.47 1018.26 1018.19 1018.04 1018.06 1017.99 1017.83 1018.03 1018.30 1018.76 1019.18 1018.50 1015.09 1012.92 1012.76 1013.21 1013.46 1013.37 1013.14 1013.22 1013.05 1013.24 1013.72 1013.60 1013.56 1013.23 1013.15 1012.78 1012.42 1012.30 1011.80 1011.21 1010.24 1006.91 1008.69 1007.91 1007.61 1006.75 1006.25 1005.68 1005.59 1005.32
1017.98 1018.04 1018.17 1018.20 1018.12 1017.94 1017.78 1017.60 1017.78 1017.61 1017.77 1018.20 1018.86 1019.36 1017.19 1013.66 1013.02 1012.75 1013.06 1013.27 1012.72 1012.90 1012.94 1012.91 1012.97 1013.41 1013.92 1013.97 1013.80 1013.86 1013.43 1012.62 1012.02 1011.75 1011.07 1010.96 1006.61 1008.39 1007.96 1007.78 1007.34 1006.89 1006.42 1005.86 1005.53
1017.68 1017.72 1017.84 1017.82 1017.79 1017.46 1017.51 1017.44 1017.27 1017.30 1017.92 1018.29 1018.94 1019.40 1016.22 1013.37 1012.70 1011.02 1011.87 1012.25 1012.03 1012.37 1012.40 1012.47 1012.90 1013.48 1014.17 1014.75 1015.10 1014.84 1013.99 1012.73 1012.69 1011.64 1011.45 1011.23 1008.51 1007.97 1008.29 1008.11 1007.60 1007.34 1006.77 1006.09 1005.75
1017.33 1017.58 1017.37 1017.58 1017.31 1017.34 1017.24 1017.34 1017.69 1017.93 1018.20 1018.32 1018.53 1019.10 1015.31 1012.58 1011.19 1010.60 1010.57 1011.32 1011.88 1012.23 1012.39 1012.40 1013.06 1013.82 1014.69 1015.33 1015.30 1014.99 1014.51 1013.34 1012.99 1012.44 1011.72 1011.60 1009.17 1007.88 1008.44 1008.38 1008.03 1007.49 1006.78 1006.42 1006.29
1016.95 1017.35 1017.19 1017.01 1017.02 1016.96 1017.44 1017.96 1018.03 1018.19 1017.66 1016.01 1015.91 1015.06 1013.15 1011.73 1010.67 1010.51 1010.19 1010.87 1011.71 1012.20 1012.76 1012.72 1013.71 1013.70 1013.98 1014.51 1014.34 1014.54 1014.35 1013.33 1012.79 1012.42 1011.74 1011.77 1009.75 1008.63 1008.24 1008.44 1007.75 1006.96 1006.87 1006.90 1007.29
1017.00 1016.80 1016.70 1016.76 1016.60 1016.66 1016.74 1017.06 1016.02 1016.21 1015.74 1014.97 1014.21 1013.88 1012.46 1012.40 1011.87 1010.50 1010.07 1011.04 1011.73 1012.41 1013.00 1013.44 1012.82 1013.06 1013.73 1014.26 1014.38 1014.46 1014.22 1013.30 1011.66 1011.85 1012.09 1011.62 1009.98 1009.07 1007.75 1007.88 1007.44 1006.85 1006.63 1007.58 1008.44
1016.44 1016.56 1016.33 1016.50 1016.28 1016.71 1016.65 1016.13 1015.26 1015.59 1015.33 1012.96 1012.38 1011.96 1011.82 1012.00 1011.34 1010.47 1010.40 1010.62 1011.51 1012.34 1012.72 1012.95 1012.34 1012.45 1013.29 1013.70 1013.88 1013.93 1013.77 1013.25 1012.93 1012.48 1012.33 1012.24 1010.55 1008.73 1007.87 1007.02 1006.75 1006.61 1006.45 1007.50 1007.88
1015.98 1016.20 1016.05 1016.20 1016.99 1016.30 1016.30 1015.55 1015.53 1015.93 1015.30 1011.85 1011.09 1009.75 1010.20 1010.42 1010.00 1009.25 1009.20 1010.59 1011.34 1011.68 1012.44 1012.45 1012.11 1012.34 1012.64 1012.95 1013.21 1013.42 1013.58 1013.49 1013.70 1013.71 1013.47 1013.22 1012.06 1007.35 1007.65 1006.96 1006.99 1006.78 1006.71 1007.57 1009.42
1015.49 1015.64 1015.81 1015.72 1015.42 1015.76 1015.37 1015.20 1015.60 1015.98 1014.55 1009.91 1009.05 1008.46 1008.89 1009.52 1008.38 1008.06 1008.82 1010.15 1010.62 1011.21 1011.87 1011.28 1011.24 1011.81 1012.25 1012.31 1012.84 1013.41 1013.66 1014.06 1014.42 1014.59 1014.58 1013.43 1013.69 1008.75 1008.50 1007.85 1008.04 1007.95 1008.39 1008.82 1010.34
1014.95 1014.97 1015.00 1015.21 1015.16 1014.75 1014.72 1015.52 1016.08 1016.06 1012.50 1009.11 1008.16 1008.26 1009.33 1009.05 1008.32 1008.05 1008.91 1009.74 1009.93 1011.25 1011.39 1011.16 1011.05 1011.37 1011.61 1012.13 1012.56 1013.46 1014.11 1014.62 1014.99 1015.42 1015.01 1013.51 1013.57 1010.39 1010.26 1009.98 1009.94 1010.19 1011.29 1010.80 1011.06
1014.26 1014.10 1014.02 1013.76 1013.97 1014.36 1014.69 1015.78 1016.12 1014.49 1010.43 1008.70 1007.93 1008.19 1008.18 1008.42 1008.46 1008.33 1008.86 1009.72 1010.08 1011.17 1011.26 1011.13 1010.84 1010.94 1011.31 1012.38 1012.83 1013.47 1014.47 1015.54 1015.78 1015.83 1014.46 1013.41 1013.38 1012.56 1012.36 1011.94 1011.08 1011.24 1012.18 1013.61 1012.83
1013.78 1013.45 1012.98 1013.20 1013.33 1013.90 1014.58 1015.47 1014.46 1010.98 1009.73 1007.94 1007.56 1007.67 1007.91 1007.94 1008.20 1008.25 1008.81 1009.51 1009.84 1010.25 1010.84 1011.21 1010.92 1010.51 1010.50 1011.06 1012.00 1013.24 1014.25 1015.17 1015.40 1015.45 1014.62 1013.74 1013.57 1014.56 1014.50 1014.56 1013.35 1013.43 1013.83 1013.81 1015.14
1013.47 1013.43 1013.41 1013.21 1013.14 1013.40 1014.21 1013.81 1011.95 1010.18 1009.03 1008.70 1007.89 1007.88 1007.61 1007.38 1007.47 1007.90 1008.33 1008.64 1008.94 1009.56 1010.36 1010.50 1010.47 1009.83 1009.83 1010.34 1011.13 1013.16 1013.77 1014.08 1015.13 1015.45 1015.32 1014.03 1013.99 1014.07 1015.64 1015.78 1015.95 1016.02 1016.38 1016.58 1015.97
1013.46 1013.47 1013.28 1013.22 1013.23 1013.55 1013.64 1012.28 1010.39 1009.56 1008.79 1008.62 1008.51 1007.81 1007.60 1007.23 1007.52 1007.61 1008.10 1008.22 1008.54 1008.52 1008.93 1009.80 1010.15 1009.92 1009.76 1010.21 1010.95 1011.73 1012.92 1014.18 1015.11 1015.49 1014.91 1013.91 1014.53 1015.37 1015.90 1016.56 1016.41 1017.07 1017.33 1017.89 1018.06
1013.34 1013.53 1013.13 1013.16 1013.36 1013.38 1011.80 1011.07 1010.21 1009.42 1009.18 1009.05 1008.51 1008.30 1007.98 1007.80 1007.43 1007.68 1007.70 1008.27 1008.40 1008.61 1008.73 1009.65 1010.29 1010.35 1009.96 1009.77 1010.23 1011.46 1012.24 1013.24 1014.13 1014.76 1014.56 1014.43 1014.98 1015.29 1015.95 1016.37 1017.10 1017.39 1017.10 1017.63 1017.21
1012.91 1013.25 1013.33 1012.92 1013.26 1012.62 1011.43 1010.81 1010.09 1009.21 1009.17 1009.03 1008.67 1008.31 1008.32 1008.14 1008.08 1008.02 1008.08 1008.05 1008.59 1008.94 1009.60 1010.24 1010.60 1010.71 1009.86 1009.13 1009.28 1009.86 1010.66 1012.01 1013.33 1014.16 1014.33 1014.61 1014.90 1015.08 1015.56 1016.08 1016.96 1017.38 1017.69 1017.42 1017.29
1012.67 1012.89 1013.15 1013.15 1012.77 1012.40 1012.07 1010.90 1010.22 1009.45 1009.00 1008.71 1008.55 1008.20 1008.06 1008.19 1008.55 1008.38 1008.28 1008.56 1008.74 1009.05 1009.75 1010.40 1011.27 1011.30 1010.18 1010.03 1009.53 1009.46 1010.06 1010.65 1011.96 1013.23 1013.61 1014.31 1014.35 1014.76 1015.23 1016.02 1016.89 1017.25 1017.54 1017.89 1018.37
1012.59 1012.67 1013.06 1012.96 1012.42 1011.97 1011.47 1010.70 1010.06 1009.78 1009.37 1008.86 1008.44 1008.34 1008.09 1007.96 1008.06 1008.56 1008.61 1008.76 1009.08 1009.74 1010.20 1010.73 1011.48 1011.46 1010.63 1009.27 1008.96 1009.15 1009.34 1009.88 1010.99 1012.26 1012.62 1012.98 1013.91 1014.74 1015.74 1016.58 1017.43 1018.17 1018.70 1019.12 1019.44
1011.75 1011.65 1011.51 1011.79 1011.79 1011.45 1010.94 1010.28 1009.77 1009.58 1009.08 1008.93 1008.64 1008.06 1007.82 1008.06 1008.16 1008.67 1009.00 1009.44 1009.70 1009.94 1010.53 1011.08 1011.68 1011.42 1010.71 1009.57 1009.30 1008.99 1009.03 1009.20 1010.16 1011.30 1011.98 1012.70 1013.73 1015.34 1016.56 1017.44 1018.29 1019.02 1019.62 1020.18 1020.71
1011.21 1011.02 1011.16 1010.79 1010.90 1011.26 1010.83 1009.79 1009.35 1008.83 1008.71 1008.72 1008.83 1008.70 1007.74 1007.62 1007.83 1008.32 1008.87 1009.64 1009.80 1010.13 1010.56 1011.11 1011.97 1011.90 1011.23 1010.37 1009.64 1009.38 1009.14 1009.49 1010.21 1011.10 1012.32 1013.15 1014.94 1016.15 1017.47 1018.30 1019.00 1019.59 1020.29 1020.70 1021.04
1010.44 1010.11 1009.89 1009.75 1010.22 1010.44 1009.60 1009.07 1008.73 1008.62 1008.06 1007.62 1007.67 1007.91 1007.41 1007.23 1007.84 1008.11 1008.40 1009.04 1009.36 1009.85 1010.84 1011.47 1011.95 1012.20 1011.47 1011.04 1010.76 1010.47 1009.93 1010.04 1011.31 1012.30 1013.07 1014.09 1014.85 1016.84 1018.35 1019.23 1020.02 1020.64 1021.07 1021.43 1021.92
Wind_Speed
4 4 4 6 8 9 9 8 8 8 7 7 9 12 15 17 21 3 6 10 6 6 1 5 3 3 3 3 3 3 2 3 6 2 6 13 12 2 7 6 7 9 2 5 10
4 5 6 7 7 8 8 10 10 9 8 5 7 11 13 16 6 10 10 7 5 5 1 1 4 4 1 3 2 4 4 7 7 4 11 17 13 10 4 11 6 6 10 5 4
3 5 6 7 7 7 8 9 9 10 10 5 5 9 12 12 5 6 6 8 5 2 2 1 3 2 2 3 4 4 7 4 10 11 11 16 20 11 5 4 6 9 7 10 7
4 5 6 7 8 8 8 9 9 10 9 5 4 8 12 3 4 3 6 3 2 2 2 3 3 2 3 3 4 5 7 8 7 5 8 12 11 16 5 7 9 9 8 6 8
6 6 7 9 9 8 9 8 8 9 10 7 3 4 4 2 13 5 3 2 1 1 2 1 3 1 3 3 7 5 4 6 9 12 11 15 17 18 17 15 10 10 10 10 9
7 7 8 10 10 8 8 9 7 9 8 8 6 1 0 7 6 6 5 3 6 3 3 4 4 3 5 3 1 5 10 8 7 9 9 16 20 8 10 12 21 15 15 13 11
7 8 8 9 9 9 10 10 9 8 9 8 6 3 5 20 5 6 13 8 3 3 3 4 5 1 6 7 2 7 12 12 6 6 6 15 32 10 12 11 19 22 21 16 12
7 8 9 9 9 10 8 9 9 9 10 8 6 2 10 8 8 14 7 6 9 9 10 10 4 2 3 4 8 6 6 3 4 1 8 3 36 4 8 9 12 11 14 17 13
8 9 9 9 9 8 9 8 8 7 8 8 3 3 12 9 7 10 14 9 4 6 7 12 5 4 1 3 5 3 7 8 4 8 4 2 22 3 15 10 14 11 14 16 17
8 9 9 10 8 9 4 9 15 9 3 3 3 4 7 6 4 4 9 10 6 3 3 6 4 5 0 5 6 6 7 7 3 7 3 8 25 25 9 8 14 17 15 16 11
7 10 9 9 8 11 13 5 3 1 5 12 10 7 5 5 4 5 4 6 4 3 6 5 5 9 16 9 8 4 9 18 14 7 8 9 24 19 13 11 18 18 14 11 12
9 9 9 9 8 18 6 3 5 1 9 21 22 20 17 5 5 7 8 8 7 7 4 2 13 12 8 8 12 13 16 17 20 8 6 9 22 22 23 17 17 16 14 11 13
8 9 8 9 8 8 4 7 4 7 5 6 13 11 11 13 11 11 7 6 5 8 8 10 7 9 10 11 14 14 16 16 16 5 5 7 16 21 12 13 11 12 13 13 20
7 8 8 8 12 4 4 11 6 3 3 7 9 9 9 7 9 20 9 6 5 11 6 10 17 15 14 10 9 10 3 4 3 5 8 6 14 31 10 11 7 11 8 19 15
7 11 9 15 6 7 6 6 3 1 4 1 6 7 11 10 4 4 17 5 18 7 8 9 1 8 14 16 5 2 2 4 1 1 4 4 4 12 18 17 10 1 15 17 14
9 13 11 7 3 5 7 7 3 4 12 5 6 8 8 6 3 5 6 6 7 7 9 9 2 6 7 4 5 7 3 1 2 2 4 5 8 6 6 5 6 15 12 15 15
9 15 9 7 8 8 10 5 3 6 4 5 6 10 10 8 4 4 8 11 7 5 5 3 5 5 6 4 3 4 5 4 4 4 8 3 2 4 13 17 15 17 17 11 10
5 10 2 5 7 13 5 4 7 9 11 3 3 1 10 8 8 9 6 6 5 3 4 5 6 8 5 9 8 6 8 6 7 3 4 4 4 6 15 20 22 19 16 19 10
1 2 2 1 9 9 9 11 13 6 5 7 15 9 7 9 9 11 14 14 10 11 9 6 5 2 6 5 9 5 4 2 2 4 2 4 3 11 11 12 14 15 15 13 14
3 2 2 2 6 5 11 10 12 11 10 6 4 6 5 8 7 10 8 1 11 11 7 6 7 4 3 6 2 7 8 3 2 4 5 4 4 2 1 2 9 8 9 9 7
2 1 1 3 5 5 8 10 14 11 5 9 7 5 4 2 3 5 8 1 2 1 9 5 5 4 6 8 11 5 5 2 4 3 3 2 3 2 4 7 7 8 10 8 12
2 5 2 2 6 3 7 12 12 6 8 14 4 5 6 5 3 3 9 6 3 2 4 2 4 7 12 4 9 10 11 10 4 4 2 2 2 5 7 5 11 10 9 11 14
2 2 1 2 9 10 3 8 7 4 10 6 14 9 7 7 4 4 2 2 5 4 6 6 3 3 1 4 1 7 8 11 10 3 5 4 3 10 7 13 10 10 10 12 12
3 3 2 1 2 7 7 6 9 8 12 8 8 8 5 6 5 6 4 2 2 4 11 7 4 5 4 3 5 5 8 10 10 4 4 6 7 7 14 11 10 10 10 10 11
3 4 5 6 6 11 8 6 16 9 8 2 6 14 11 7 6 5 4 4 3 10 5 7 5 5 7 3 4 5 2 8 12 12 7 6 9 11 8 10 10 9 9 9 9
5 4 4 4 5 16 8 11 17 15 12 8 7 13 8 8 7 9 9 4 5 4 5 3 2 2 3 11 3 4 3 2 2 2 8 15 11 11 11 10 8 7 8 8 10
2 2 3 6 5 9 14 18 11 16 7 16 16 15 9 6 5 4 6 8 7 7 4 6 5 4 4 7 4 6 2 6 6 7 6 6 7 11 10 9 7 8 8 8 8
Wind_Direction
336 326 331 340 324 305 293 288 290 286 281 301 320 328 331 326 318 314 261 220 195 187 299 288 270 293 82 278 192 95 52 232 249 268 264 311 325 82 313 347 322 328 277 180 182
347 342 336 333 323 318 316 303 291 285 276 280 315 324 327 336 310 281 243 172 194 171 218 309 306 3 6 242 313 123 175 230 212 250 286 297 295 303 330 316 301 329 323 335 261
326 340 336 323 318 309 307 314 303 282 258 248 291 314 322 334 309 256 170 184 183 192 293 282 278 253 239 183 220 215 229 246 275 283 282 290 297 299 267 265 247 268 273 303 317
286 302 314 320 314 309 307 310 313 296 254 232 277 318 321 342 289 331 158 172 134 284 317 317 284 216 230 234 240 291 262 276 288 317 327 306 304 301 265 266 262 239 232 240 251
272 278 300 310 311 303 303 301 298 305 254 198 214 337 4 348 254 287 270 271 258 204 214 237 313 255 238 269 338 268 267 293 305 303 297 294 285 282 290 286 261 285 274 255 238
287 272 283 295 295 290 296 304 293 295 239 204 163 105 174 264 252 280 314 290 212 197 215 170 224 257 266 262 287 297 301 306 342 328 301 290 286 303 291 290 291 284 273 261 251
288 277 279 282 282 281 293 298 288 282 212 191 165 213 243 249 240 280 320 301 287 203 246 220 226 177 330 332 314 298 308 311 289 240 270 293 282 261 290 273 276 285 287 271 250
278 279 280 278 273 272 286 289 272 264 187 161 152 248 252 264 258 261 241 264 251 240 233 255 224 211 216 287 336 326 287 306 220 156 257 225 277 202 296 317 300 294 313 302 270
276 274 276 270 271 273 282 291 263 153 150 139 128 230 264 299 241 248 205 219 198 223 215 231 205 185 358 312 350 274 265 253 325 214 278 234 289 73 326 326 311 309 301 307 303
272 279 286 278 274 274 127 98 95 94 110 181 273 284 249 246 210 237 166 185 208 221 221 172 123 144 76 119 229 222 262 277 250 298 295 308 286 299 306 308 307 302 305 304 280
275 279 282 282 278 136 115 110 114 233 221 193 183 234 272 246 219 249 159 145 179 150 192 172 167 199 213 206 233 250 264 272 272 249 301 291 279 290 285 292 295 294 302 333 87
269 278 280 283 295 164 130 181 203 153 280 225 242 233 264 9 317 269 130 157 161 190 147 313 237 227 210 216 240 247 259 267 282 279 315 302 283 288 283 282 272 286 282 125 115
274 282 280 287 204 165 184 221 308 30 275 235 213 225 226 202 225 243 157 163 168 185 195 201 224 202 207 223 240 244 251 269 267 340 196 296 288 284 285 262 277 282 286 168 143
276 284 285 284 153 152 200 238 278 63 335 270 208 245 174 191 236 209 211 147 204 211 197 237 226 240 246 243 243 265 338 43 13 18 299 90 296 294 281 291 285 298 88 105 93
283 286 266 190 152 175 208 201 135 67 350 184 164 138 153 176 294 177 195 149 225 210 159 225 141 211 233 241 177 224 123 110 121 42 354 168 246 269 334 310 317 120 114 107 112
281 286 262 221 186 206 159 109 83 92 248 304 144 155 158 222 279 104 146 175 201 220 251 245 89 169 212 155 150 138 96 118 78 122 261 186 195 315 3 352 33 80 79 108 113
293 292 249 169 200 164 140 106 114 197 271 221 196 155 182 180 213 168 160 194 161 147 237 320 215 182 140 145 153 103 80 309 323 229 239 338 222 299 351 9 311 123 99 35 82
323 350 35 159 166 150 132 167 203 215 229 36 82 160 198 155 224 213 172 194 252 158 146 187 305 162 185 198 180 158 159 180 229 233 282 304 249 22 47 26 28 76 86 98 53
319 354 350 194 173 166 159 197 209 206 191 231 286 278 247 208 188 194 213 216 199 176 188 189 246 276 173 153 139 155 186 179 296 239 349 227 107 57 24 46 40 42 41 53 76
150 159 229 188 153 178 198 212 221 226 277 330 256 213 234 219 189 187 170 217 227 189 165 208 253 242 167 102 143 152 154 112 121 228 239 258 89 145 131 78 104 72 65 51 62
150 154 122 141 131 215 215 210 231 227 260 249 231 246 239 276 151 177 190 155 168 318 202 146 148 274 138 200 171 150 186 148 160 205 242 295 169 218 242 147 120 124 120 96 62
190 215 199 183 210 209 200 207 228 238 229 250 285 220 218 183 218 227 191 189 145 140 182 313 146 222 214 186 180 192 198 179 154 225 227 104 210 191 211 169 150 134 107 79 63
197 176 176 270 203 215 241 215 239 236 222 238 220 209 205 198 207 221 259 105 154 106 178 157 185 214 270 344 226 193 209 202 193 118 200 173 204 188 109 123 104 95 80 70 62
160 160 186 182 262 222 197 213 221 234 249 255 256 240 210 196 198 188 171 225 180 133 143 146 167 225 235 183 152 169 199 187 170 169 208 196 151 178 126 130 110 92 84 73 59
171 199 221 178 217 217 174 240 216 229 217 331 248 224 199 200 201 206 158 155 144 160 152 133 196 218 258 190 184 195 178 219 199 206 184 193 137 132 113 109 99 89 78 71 63
171 189 204 158 174 204 197 212 230 220 222 219 212 268 198 176 182 193 154 189 188 202 136 129 180 28 281 267 259 229 219 94 191 50 71 119 113 127 122 109 85 72 67 57 46
187 225 236 170 165 185 215 226 238 224 252 228 207 214 222 212 159 159 169 163 166 150 166 143 144 157 229 203 267 298 226 119 113 44 139 171 160 140 117 103 96 87 75 67 51